Vertical_Velocity
-4 -4 -5 -6 -6 -5 -5 -5 -4 -4 -4 -5 -5 -6 -6 -4 -6 -6 -5 -3 -4 -5 -5 -5 -4 -3 -4 -4 -3 -3 -4 -4 -3 -2 -2 -1 -1 -1 -0 -0 -0 0 0 -0 0 -0 -1 -3 -5 -6 -7 -5 -1 0 -0 -1 -2 -4 -5 -4 -4 -4 -3 -3 -3 -3 -3 -4 -5
-3 -3 -4 -5 -6 -6 -6 -6 -5 -4 -4 -5 -4 -5 -6 -6 -6 -6 -6 -4 -4 -4 -5 -5 -5 -3 -3 -4 -4 -4 -4 -4 -4 -3 -2 -1 -1 -1 -1 -1 -1 -0 0 0 -0 -0 -1 -2 -3 -5 -6 -6 -1 0 -0 -1 -1 -3 -5 -5 -4 -4 -3 -4 -3 -2 -2 -4 -5
-3 -4 -4 -4 -4 -5 -6 -6 -5 -4 -4 -5 -4 -4 -4 -6 -6 -6 -6 -5 -4 -4 -4 -5 -6 -4 -3 -4 -4 -4 -3 -3 -4 -3 -3 -2 -1 -1 -1 -1 -1 -1 -1 -0 -1 -1 -1 -2 -3 -4 -5 -5 -2 -0 0 -0 -1 -3 -5 -5 -4 -3 -4 -4 -3 -2 -2 -4 -4
-2 -3 -4 -4 -4 -4 -5 -6 -5 -5 -4 -3 -4 -3 -3 -4 -5 -5 -5 -5 -4 -4 -4 -4 -5 -5 -4 -3 -4 -4 -3 -2 -3 -3 -3 -3 -2 -1 -1 -1 -1 -1 -1 -1 -1 -2 -2 -3 -4 -4 -4 -4 -3 -1 -0 0 -1 -3 -4 -4 -3 -4 -4 -4 -2 -2 -2 -4 -3
-1 -2 -2 -3 -4 -4 -4 -4 -4 -4 -4 -3 -2 -3 -3 -4 -4 -5 -6 -5 -5 -5 -4 -4 -4 -5 -4 -3 -3 -3 -3 -3 -3 -3 -3 -4 -3 -2 -1 -1 -1 -1 -1 -1 -1 -2 -3 -4 -4 -4 -4 -3 -3 -2 -1 0 -1 -3 -4 -2 -3 -4 -4 -3 -2 -2 -2 -3 -3
-1 -2 -2 -2 -3 -4 -4 -3 -3 -3 -4 -3 -2 -3 -4 -5 -5 -6 -6 -6 -6 -5 -4 -3 -3 -4 -4 -4 -3 -3 -3 -3 -3 -3 -3 -3 -4 -3 -2 -2 -2 -2 -1 -1 -2 -2 -3 -4 -4 -5 -4 -1 -2 -2 -1 0 -2 -3 -3 -2 -4 -3 -2 -3 -3 -3 -2 -3 -2
-2 -2 -3 -3 -3 -3 -4 -4 -3 -3 -3 -2 -3 -4 -5 -6 -6 -6 -7 -7 -6 -5 -4 -3 -3 -3 -4 -4 -4 -4 -4 -4 -4 -4 -3 -3 -4 -4 -3 -2 -3 -3 -3 -2 -2 -3 -4 -4 -4 -4 -4 -1 -1 -1 -1 0 -3 -4 -3 -2 -3 -2 -1 -5 -4 -2 -2 -4 -3
-2 -3 -3 -4 -4 -3 -4 -4 -3 -3 -4 -4 -3 -4 -6 -6 -6 -6 -6 -6 -5 -4 -4 -4 -4 -4 -4 -4 -5 -5 -5 -5 -5 -5 -5 -4 -3 -4 -4 -4 -3 -3 -4 -4 -3 -3 -5 -6 -5 -4 -3 -1 -0 -1 -1 -0 -3 -4 -3 -2 -2 -1 -1 -5 -3 -2 -3 -4 -3
-2 -2 -2 -3 -3 -3 -3 -4 -4 -3 -4 -5 -5 -4 -5 -6 -5 -5 -6 -6 -6 -5 -4 -4 -5 -6 -6 -6 -6 -6 -6 -6 -5 -5 -6 -5 -4 -4 -4 -5 -4 -4 -4 -5 -4 -4 -5 -7 -6 -5 -3 -0 -0 -0 -1 -0 -3 -4 -4 -1 -1 -1 -1 -2 -2 -3 -3 -3 -2
-2 -2 -2 -3 -3 -3 -2 -3 -4 -4 -3 -4 -4 -4 -3 -4 -4 -5 -6 -6 -6 -6 -6 -6 -7 -7 -8 -8 -7 -7 -7 -7 -6 -6 -6 -6 -5 -4 -4 -5 -4 -4 -4 -6 -6 -6 -6 -7 -6 -5 -3 -1 0 0 -1 -0 -2 -4 -4 -1 -0 -0 -1 -1 -1 -2 -3 -2 -2
-2 -2 -2 -3 -4 -4 -4 -3 -4 -3 -2 -2 -2 -3 -3 -3 -4 -5 -7 -8 -7 -7 -8 -8 -7 -8 -8 -9 -7 -7 -6 -7 -7 -6 -6 -5 -5 -4 -4 -4 -4 -4 -4 -4 -5 -6 -6 -7 -6 -4 -3 -2 0 0 0 -0 -1 -2 -3 -2 0 1 0 0 1 -1 -3 -3 -2
-2 -3 -3 -3 -4 -4 -4 -4 -3 -2 -1 -1 -2 -2 -3 -4 -4 -6 -7 -8 -8 -8 -8 -8 -7 -6 -7 -9 -8 -7 -6 -6 -7 -6 -6 -5 -4 -4 -4 -4 -4 -4 -4 -4 -4 -5 -6 -6 -6 -4 -3 -2 -0 1 1 0 -0 -2 -2 -1 1 1 1 2 2 0 -2 -2 -2
-2 -4 -5 -5 -4 -4 -3 -3 -3 -2 -2 -2 -3 -3 -4 -5 -6 -6 -6 -7 -8 -8 -8 -7 -6 -6 -5 -6 -8 -8 -7 -6 -6 -6 -6 -5 -4 -3 -3 -3 -3 -3 -3 -4 -3 -4 -4 -6 -4 -3 -2 -2 -0 1 1 1 0 -1 -1 -1 1 2 2 3 3 1 -1 -1 -1
-3 -4 -4 -5 -4 -3 -3 -3 -4 -3 -3 -4 -5 -5 -5 -6 -6 -6 -6 -6 -7 -7 -6 -6 -6 -6 -4 -3 -5 -7 -8 -8 -7 -6 -5 -6 -4 -2 -2 -2 -2 -2 -2 -3 -3 -2 -3 -4 -4 -3 -2 -2 -0 1 2 2 1 -0 -0 0 2 2 3 4 4 2 1 -1 -1
-3 -3 -3 -3 -3 -3 -3 -3 -5 -5 -5 -5 -6 -6 -5 -6 -6 -6 -5 -5 -6 -6 -5 -4 -4 -5 -5 -4 -3 -4 -6 -9 -8 -6 -4 -5 -4 -2 -1 -1 -1 -1 -1 -2 -2 -2 -2 -2 -2 -2 -2 -1 -0 1 2 2 1 1 0 1 2 3 4 5 4 3 2 0 0
-3 -3 -3 -3 -3 -3 -4 -5 -6 -6 -6 -6 -6 -6 -5 -5 -6 -6 -4 -4 -6 -6 -6 -4 -4 -4 -5 -6 -5 -4 -4 -6 -7 -6 -4 -3 -3 -2 -1 -0 -0 -0 -0 -1 -1 -1 -1 -1 -1 -1 -1 -1 -0 1 2 2 2 2 1 2 2 4 4 5 5 4 2 1 2
-3 -3 -3 -3 -4 -5 -5 -5 -6 -6 -6 -6 -6 -5 -5 -4 -5 -5 -5 -4 -4 -5 -6 -7 -6 -4 -4 -5 -7 -6 -4 -3 -6 -5 -4 -2 -2 -1 -0 -0 0 0 0 -0 -1 -1 -0 0 0 0 -0 -1 -0 1 2 3 3 2 2 3 3 4 4 5 5 4 3 2 2
-4 -5 -5 -4 -5 -6 -5 -5 -5 -5 -5 -5 -5 -5 -5 -4 -4 -4 -5 -5 -4 -4 -4 -7 -8 -7 -5 -4 -5 -6 -4 -2 -4 -4 -4 -2 -2 -1 -0 0 0 1 1 -0 -0 -0 0 1 1 1 0 -0 0 1 2 3 3 3 3 4 4 4 4 5 4 4 3 3 3
-5 -6 -7 -6 -5 -5 -5 -5 -4 -4 -4 -4 -4 -4 -4 -5 -4 -4 -4 -5 -6 -6 -5 -6 -8 -8 -7 -5 -4 -4 -4 -3 -3 -3 -3 -1 -1 -1 -0 0 0 0 1 0 0 0 1 1 2 2 1 1 0 1 2 3 3 3 4 4 4 4 5 4 4 4 3 3 3
-6 -6 -7 -6 -5 -5 -5 -5 -4 -4 -4 -5 -4 -4 -4 -5 -4 -4 -4 -5 -6 -6 -6 -6 -7 -7 -6 -6 -4 -4 -3 -2 -2 -3 -3 -1 -1 -1 -1 0 -0 0 1 1 0 1 1 1 2 2 2 1 1 1 2 3 3 3 4 4 4 5 5 4 3 3 3 3 4
-7 -6 -6 -6 -5 -4 -4 -4 -4 -4 -5 -5 -5 -4 -4 -4 -4 -4 -4 -5 -5 -6 -6 -7 -6 -6 -6 -5 -4 -4 -3 -1 -1 -2 -3 -1 -1 -1 -0 0 -1 -0 0 1 1 1 1 2 2 2 2 1 1 2 2 3 3 3 3 4 4 5 5 4 3 2 2 3 4
-6 -5 -4 -4 -5 -5 -4 -4 -4 -4 -5 -5 -5 -5 -4 -4 -4 -4 -4 -5 -5 -5 -5 -6 -6 -5 -5 -5 -4 -4 -3 -1 -1 -1 -1 -1 -1 -1 -0 0 -1 -1 -0 1 1 1 1 2 2 2 2 1 1 2 2 2 3 3 3 4 4 5 4 4 2 2 2 3 3
-5 -5 -4 -3 -4 -4 -5 -4 -5 -5 -5 -5 -5 -5 -4 -4 -4 -4 -4 -4 -4 -4 -5 -6 -4 -4 -4 -4 -3 -3 -3 -3 -1 -1 -0 -0 -1 -1 -1 -0 -1 -1 -0 0 1 2 2 2 2 2 2 2 1 2 2 2 2 3 3 4 4 4 4 3 2 2 2 2 3
-3 -4 -4 -4 -4 -4 -4 -4 -4 -4 -5 -4 -4 -4 -4 -4 -4 -4 -4 -4 -3 -3 -4 -5 -4 -3 -3 -4 -2 -2 -2 -3 -3 -2 -1 1 0 -0 -1 -1 -1 -1 -1 0 1 2 2 1 1 2 2 2 1 1 2 2 2 2 2 3 3 3 3 2 2 2 2 2 2
-2 -3 -5 -5 -4 -4 -4 -4 -4 -4 -4 -4 -4 -3 -3 -3 -3 -4 -4 -4 -3 -3 -3 -4 -4 -3 -2 -3 -2 -1 -1 -2 -3 -3 -2 -1 0 1 0 -1 -1 -1 -0 0 1 2 1 1 1 1 2 2 2 1 1 1 2 2 2 2 2 2 2 2 2 2 2 2 2
-2 -3 -4 -6 -5 -4 -4 -4 -3 -3 -3 -3 -3 -3 -3 -3 -3 -3 -3 -3 -3 -3 -2 -3 -3 -3 -2 -2 -2 -1 -1 -1 -2 -2 -2 -2 -1 0 1 0 -0 -0 -0 1 1 1 1 1 1 1 1 2 1 1 1 1 1 1 1 1 1 1 2 2 2 2 2 1 1
-4 -4 -4 -5 -4 -4 -3 -2 -2 -2 -3 -2 -2 -2 -2 -2 -2 -2 -2 -3 -3 -2 -2 -2 -2 -2 -2 -2 -2 -1 -1 -1 -1 -1 -2 -2 -2 -1 -0 1 0 0 0 1 1 1 1 1 1 1 1 1 -0 -0 -0 0 1 1 1 0 0 1 1 2 2 2 2 1 1
-6 -6 -6 -4 -3 -3 -2 -2 -1 -2 -2 -2 -1 -1 -1 -1 -1 -2 -2 -2 -2 -2 -2 -2 -1 -1 -2 -2 -1 -1 -1 -1 -1 -1 -2 -2 -2 -1 -1 0 0 1 1 1 1 1 1 1 1 1 1 0 -1 -1 -1 -1 0 0 1 0 0 0 1 1 2 2 2 1 1
-4 -6 -6 -5 -4 -3 -2 -1 -1 -1 -1 -2 -1 -1 -1 -1 -1 -1 -1 -2 -2 -2 -2 -2 -1 -1 -1 -1 -1 -1 -1 -0 -1 -1 -2 -2 -1 -1 -1 -0 0 1 2 2 1 1 1 1 1 1 0 0 -1 -2 -2 -1 -0 0 0 1 1 1 1 2 2 2 2 2 1
-4 -4 -4 -4 -3 -2 -1 -1 -1 -1 -1 -1 -1 -1 -1 -1 -1 -1 -1 -1 -2 -1 -1 -1 -2 -1 -1 -1 -2 -2 -1 -1 -1 -1 -2 -2 -2 -1 -0 0 0 1 1 2 1 1 0 0 0 0 0 0 -1 -2 -2 -2 -1 -0 1 1 2 2 2 2 2 2 2 2 0
-4 -4 -4 -3 -3 -2 -1 -0 -1 -2 -1 -1 -1 -1 -1 -0 -1 -1 -1 -1 -1 -1 -0 0 -0 -1 -1 -0 -1 -1 -2 -1 -1 -1 -1 -2 -2 -1 -0 1 1 1 1 1 1 0 0 -0 -1 -1 -0 0 -0 -1 -2 -2 -1 -0 1 2 3 3 3 3 3 3 2 2 1
-3 -4 -4 -3 -3 -2 -1 0 -1 -1 -2 -1 -0 -1 -1 -1 0 -0 -1 -1 -1 -1 -1 0 0 -0 -0 0 0 -0 -1 -1 -1 -1 -1 -2 -2 -1 -0 1 1 1 1 1 0 -0 -0 -1 -1 -1 -0 0 -0 -1 -2 -2 -1 0 2 3 4 4 4 3 3 3 2 2 1
-2 -2 -3 -3 -3 -3 -2 -1 -0 -0 -1 -1 0 0 -1 -2 -0 1 1 0 -0 -1 -1 -1 -1 -1 -1 -1 -1 -1 -1 -0 -0 -1 -1 -1 -2 -1 -1 1 2 2 1 1 0 -0 -1 -1 -1 -1 -0 0 -1 -1 -2 -1 -0 1 2 3 4 4 3 3 3 2 2 1 -0
-2 -2 -3 -3 -2 -2 -2 -1 -0 0 -0 -1 0 1 1 -1 -1 -0 1 1 0 -0 -0 0 -0 -1 -1 -1 -2 -2 -2 -1 -0 -0 -0 -1 -1 -1 -1 1 2 2 1 1 -0 -1 -1 -2 -1 -0 -0 -0 -1 -1 -1 -1 0 1 2 3 3 4 3 3 2 2 1 1 -0
-2 -3 -4 -4 -2 -1 -1 -1 -0 1 1 -0 -0 0 1 1 0 -0 -0 -0 -0 -0 0 1 1 0 -0 -1 -2 -2 -2 -2 -1 -0 -0 -0 -1 -1 -0 1 2 2 1 0 -1 -1 -1 -1 -1 0 0 -0 -1 -1 -1 -0 0 1 2 3 4 4 3 3 2 1 1 1 0
-2 -3 -4 -5 -3 -2 -1 -1 -0 0 0 0 -0 -0 0 1 1 1 0 -1 -1 -1 0 1 1 1 0 -1 -1 -1 -2 -2 -2 -1 -0 0 -1 -1 -0 1 2 2 1 -0 -1 -1 -1 -1 -0 0 0 -1 -1 -1 -0 0 1 1 2 3 4 4 4 3 2 2 2 1 1
-1 -2 -4 -4 -4 -2 -0 -0 -1 -0 -0 0 0 -0 -0 -0 0 1 1 -0 -2 -1 -0 1 2 1 1 -0 -1 -1 -0 -1 -2 -1 -1 0 -0 -0 -0 1 2 1 1 -1 -1 -1 -1 0 1 0 -0 -1 -1 -0 0 1 1 1 2 3 3 4 4 3 3 2 2 2 1
-1 -2 -3 -3 -4 -3 -1 -0 -1 -1 -1 -1 -0 0 0 -0 -0 0 0 -0 -2 -2 -2 0 2 1 0 -1 -1 -0 1 0 -1 -2 -1 0 0 -0 0 1 2 1 0 -1 -1 -1 0 1 1 0 -0 -1 -0 0 1 0 1 2 3 3 3 3 3 3 3 3 2 2 1
-1 -1 -2 -2 -3 -3 -2 -0 -1 -1 -2 -2 -1 -0 0 0 -0 -0 -0 0 -1 -2 -2 -1 1 1 0 -1 -1 0 1 1 -1 -2 -2 -0 0 0 0 1 2 1 -0 -1 -1 -0 0 1 1 0 -0 -0 0 0 0 1 2 3 3 3 2 2 2 2 3 3 3 2 1
-0 -1 -2 -2 -2 -3 -3 -2 -1 -1 -1 -2 -2 -1 -1 -0 -1 -1 -0 -0 -0 -1 -2 -2 -0 0 0 -1 -1 -0 1 1 -0 -1 -1 -0 0 1 1 1 1 0 -0 -1 -1 -0 0 1 1 0 0 -0 -0 -0 1 2 3 4 3 3 2 1 1 2 3 3 3 2 1
-0 -1 -2 -2 -1 -2 -3 -4 -2 -1 -1 -1 -1 -1 -1 -1 -1 -1 -1 -1 -0 -1 -1 -2 -1 -0 0 -0 -1 -0 1 1 -0 -1 -1 0 1 1 1 1 0 -0 -0 -1 -0 0 1 1 1 1 0 -0 -0 1 2 3 3 3 3 2 2 2 1 2 2 3 3 3 2
Height
5642 5640 5638 5637 5635 5633 5632 5630 5628 5626 5624 5623 5621 5620 5618 5616 5615 5613 5612 5610 5608 5606 5604 5603 5602 5600 5598 5597 5595 5593 5591 5589 5588 5586 5584 5582 5580 5578 5577 5575 5573 5571 5569 5568 5566 5565 5563 5562 5561 5561 5561 5561 5561 5560 5559 5558 5558 5558 5558 5559 5559 5560 5560 5560 5561 5561 5561 5562 5562
5638 5636 5634 5632 5630 5628 5626 5625 5623 5621 5619 5617 5616 5614 5612 5610 5608 5607 5605 5603 5602 5599 5598 5596 5595 5593 5592 5590 5588 5586 5584 5582 5580 5579 5577 5575 5573 5571 5569 5567 5565 5563 5561 5559 5558 5556 5555 5554 5553 5553 5553 5553 5553 5553 5552 5550 5550 5550 5550 5551 5551 5552 5552 5553 5553 5553 5554 5554 5555
5633 5631 5629 5627 5625 5623 5621 5619 5618 5616 5614 5612 5610 5608 5606 5604 5602 5600 5598 5597 5595 5593 5591 5589 5587 5586 5584 5582 5580 5578 5576 5574 5572 5570 5569 5567 5565 5563 5560 5558 5556 5554 5553 5551 5549 5548 5546 5545 5544 5544 5544 5544 5545 5544 5543 5543 5542 5542 5542 5543 5543 5544 5544 5545 5545 5545 5546 5547 5547
5628 5626 5624 5622 5620 5618 5616 5614 5612 5610 5608 5606 5604 5602 5600 5598 5596 5593 5592 5590 5588 5586 5583 5581 5579 5578 5576 5574 5572 5570 5568 5566 5564 5562 5560 5558 5556 5554 5552 5549 5547 5545 5543 5541 5540 5538 5537 5535 5534 5534 5535 5535 5536 5536 5535 5534 5533 5533 5533 5533 5534 5535 5536 5537 5537 5538 5538 5539 5539
5623 5621 5619 5617 5614 5612 5610 5608 5606 5604 5602 5600 5598 5596 5593 5591 5589 5587 5584 5582 5580 5578 5576 5573 5571 5569 5567 5565 5563 5562 5559 5557 5555 5552 5550 5548 5546 5544 5542 5540 5537 5535 5533 5532 5530 5528 5526 5525 5524 5524 5525 5526 5526 5526 5526 5525 5525 5524 5524 5525 5526 5527 5528 5528 5529 5529 5530 5531 5531
5618 5616 5614 5612 5609 5607 5605 5603 5600 5598 5596 5594 5592 5589 5587 5584 5582 5579 5577 5575 5573 5570 5568 5566 5563 5561 5558 5556 5554 5552 5550 5548 5545 5542 5540 5537 5535 5533 5531 5529 5527 5525 5523 5521 5519 5518 5516 5515 5514 5514 5514 5515 5516 5516 5516 5516 5516 5515 5516 5516 5517 5518 5518 5519 5520 5521 5522 5523 5523
5613 5611 5608 5606 5604 5601 5599 5597 5594 5592 5590 5587 5585 5582 5579 5577 5574 5572 5569 5567 5564 5562 5559 5557 5554 5551 5549 5546 5544 5542 5539 5537 5534 5532 5529 5527 5524 5522 5520 5518 5516 5514 5512 5510 5508 5507 5505 5504 5503 5503 5503 5504 5505 5506 5506 5506 5506 5506 5506 5507 5508 5508 5509 5510 5511 5512 5513 5514 5515
5608 5606 5603 5601 5598 5596 5593 5591 5588 5586 5583 5580 5578 5575 5572 5569 5567 5564 5561 5559 5556 5553 5551 5548 5545 5542 5539 5536 5533 5531 5528 5526 5523 5521 5518 5516 5513 5511 5509 5507 5505 5503 5502 5499 5498 5496 5494 5493 5492 5492 5493 5493 5494 5495 5495 5495 5496 5496 5497 5498 5498 5499 5499 5500 5501 5503 5504 5505 5507
5603 5600 5598 5595 5592 5590 5587 5584 5582 5579 5576 5573 5571 5568 5565 5562 5559 5556 5553 5550 5547 5544 5541 5538 5535 5531 5528 5525 5523 5520 5517 5514 5512 5510 5508 5505 5503 5500 5498 5496 5494 5492 5490 5488 5487 5485 5483 5482 5481 5481 5482 5482 5483 5483 5484 5484 5485 5486 5486 5487 5488 5489 5490 5491 5492 5493 5495 5496 5498
5598 5595 5592 5589 5586 5584 5581 5578 5575 5573 5570 5567 5563 5560 5557 5554 5551 5547 5544 5541 5538 5535 5531 5528 5524 5521 5518 5514 5512 5509 5506 5503 5501 5498 5496 5494 5492 5489 5487 5485 5483 5481 5479 5477 5475 5473 5472 5471 5470 5470 5470 5470 5471 5472 5472 5473 5474 5475 5476 5477 5478 5479 5480 5481 5482 5483 5485 5487 5488
5592 5589 5586 5583 5580 5578 5574 5572 5568 5566 5563 5559 5556 5553 5549 5546 5542 5538 5535 5531 5528 5525 5522 5518 5514 5510 5507 5504 5501 5498 5495 5492 5489 5487 5484 5482 5480 5478 5475 5473 5471 5469 5467 5465 5463 5462 5460 5459 5458 5458 5458 5459 5459 5460 5461 5462 5463 5464 5465 5467 5468 5469 5470 5472 5473 5474 5475 5477 5479
5586 5583 5580 5577 5574 5571 5568 5565 5562 5559 5556 5552 5548 5545 5541 5537 5533 5529 5526 5522 5518 5515 5511 5508 5504 5500 5496 5493 5489 5486 5483 5481 5478 5475 5472 5470 5468 5465 5463 5461 5458 5456 5454 5453 5451 5449 5448 5447 5447 5447 5447 5447 5448 5448 5449 5451 5452 5453 5455 5456 5458 5459 5461 5462 5463 5464 5466 5468 5470
5580 5577 5574 5571 5568 5564 5561 5558 5555 5552 5548 5544 5540 5536 5532 5528 5524 5520 5516 5513 5508 5505 5501 5498 5493 5489 5486 5482 5478 5475 5472 5469 5466 5463 5460 5458 5455 5453 5450 5448 5446 5444 5442 5440 5438 5437 5436 5435 5435 5435 5435 5436 5437 5438 5438 5440 5441 5443 5444 5446 5448 5449 5451 5452 5454 5455 5456 5458 5461
5574 5571 5568 5564 5561 5558 5554 5551 5547 5543 5540 5536 5532 5528 5523 5519 5515 5511 5507 5503 5499 5495 5491 5487 5483 5479 5475 5471 5468 5464 5460 5457 5454 5451 5448 5445 5443 5440 5438 5435 5433 5431 5429 5428 5426 5425 5424 5423 5423 5423 5424 5425 5426 5427 5428 5429 5431 5432 5434 5436 5438 5439 5441 5443 5444 5446 5448 5450 5452
5568 5564 5561 5557 5554 5550 5546 5543 5539 5535 5531 5527 5523 5519 5514 5510 5506 5502 5497 5493 5489 5484 5480 5477 5473 5469 5464 5460 5457 5453 5449 5445 5441 5438 5435 5433 5430 5427 5425 5423 5420 5419 5417 5416 5415 5414 5413 5413 5413 5413 5413 5414 5415 5417 5418 5419 5421 5422 5424 5426 5428 5430 5432 5434 5435 5437 5439 5441 5443
5561 5558 5554 5550 5546 5542 5538 5534 5530 5526 5522 5518 5514 5509 5505 5501 5496 5492 5488 5483 5479 5474 5470 5466 5462 5458 5454 5450 5445 5441 5437 5433 5429 5426 5423 5420 5417 5415 5413 5410 5408 5407 5405 5404 5403 5403 5403 5402 5402 5402 5403 5404 5405 5407 5408 5410 5411 5413 5414 5417 5418 5421 5423 5425 5427 5428 5430 5432 5434
5554 5550 5546 5542 5538 5534 5530 5526 5521 5517 5513 5508 5504 5500 5496 5491 5487 5482 5477 5473 5468 5464 5459 5455 5450 5447 5443 5439 5434 5429 5425 5421 5418 5414 5411 5408 5405 5403 5401 5399 5397 5396 5394 5393 5393 5393 5393 5393 5393 5393 5393 5394 5395 5397 5399 5401 5402 5404 5406 5408 5409 5412 5414 5416 5418 5420 5422 5424 5427
5547 5543 5538 5534 5530 5526 5521 5517 5513 5508 5504 5499 5495 5491 5486 5481 5477 5472 5467 5462 5457 5453 5448 5444 5439 5435 5431 5427 5423 5418 5413 5410 5406 5403 5399 5396 5394 5392 5390 5388 5387 5386 5384 5383 5383 5383 5383 5383 5384 5384 5384 5385 5387 5388 5390 5392 5393 5395 5397 5399 5401 5403 5405 5407 5409 5412 5414 5416 5419
5538 5534 5530 5526 5521 5517 5513 5508 5504 5499 5495 5490 5486 5481 5476 5471 5466 5462 5457 5452 5447 5442 5437 5433 5428 5423 5419 5415 5411 5407 5403 5398 5395 5392 5388 5386 5383 5381 5379 5378 5377 5376 5375 5374 5374 5374 5374 5375 5375 5376 5376 5377 5378 5380 5382 5383 5385 5387 5389 5391 5393 5395 5397 5399 5401 5404 5406 5408 5411
5530 5525 5521 5517 5513 5508 5504 5499 5495 5490 5486 5481 5476 5471 5466 5461 5456 5451 5446 5441 5436 5431 5426 5421 5417 5412 5408 5403 5399 5396 5392 5388 5385 5382 5378 5376 5374 5372 5370 5369 5368 5367 5367 5366 5366 5366 5366 5367 5367 5368 5368 5369 5371 5372 5374 5376 5378 5379 5381 5383 5385 5387 5389 5392 5394 5396 5399 5401 5404
5521 5517 5513 5508 5504 5499 5495 5491 5486 5481 5477 5472 5467 5462 5456 5451 5446 5441 5436 5431 5426 5421 5415 5410 5406 5401 5397 5393 5389 5385 5382 5379 5376 5373 5370 5368 5365 5363 5362 5361 5360 5359 5359 5358 5358 5358 5359 5359 5360 5360 5361 5362 5363 5365 5367 5368 5370 5372 5374 5376 5378 5380 5383 5384 5387 5389 5392 5394 5397
5513 5508 5504 5500 5496 5491 5486 5482 5477 5472 5467 5462 5457 5452 5446 5441 5436 5431 5426 5420 5415 5410 5405 5400 5395 5391 5387 5383 5379 5376 5373 5370 5367 5365 5362 5360 5358 5356 5354 5353 5352 5352 5351 5351 5351 5352 5352 5352 5353 5354 5354 5356 5357 5358 5360 5362 5363 5365 5367 5369 5372 5374 5376 5378 5380 5383 5385 5388 5390
5504 5500 5496 5492 5487 5483 5478 5473 5468 5463 5457 5452 5447 5442 5436 5431 5426 5421 5416 5411 5405 5400 5395 5390 5386 5382 5378 5374 5371 5368 5365 5362 5359 5357 5355 5353 5351 5349 5348 5347 5346 5345 5344 5345 5345 5345 5345 5346 5346 5347 5348 5349 5351 5352 5354 5355 5357 5359 5361 5363 5365 5368 5370 5372 5374 5377 5379 5382 5384
5497 5493 5488 5483 5479 5474 5469 5464 5459 5453 5448 5443 5437 5432 5427 5422 5417 5411 5406 5401 5396 5391 5386 5381 5377 5373 5370 5366 5363 5360 5358 5355 5352 5350 5348 5347 5345 5343 5341 5340 5339 5339 5338 5338 5339 5339 5339 5340 5340 5341 5343 5344 5345 5346 5348 5350 5352 5353 5355 5358 5360 5362 5364 5367 5369 5371 5374 5377 5379
5489 5485 5480 5475 5471 5466 5461 5455 5450 5444 5439 5433 5428 5423 5418 5412 5407 5402 5397 5392 5387 5382 5378 5373 5369 5366 5363 5359 5357 5354 5351 5348 5346 5343 5342 5340 5339 5338 5336 5334 5333 5333 5333 5333 5333 5333 5333 5334 5335 5336 5337 5339 5340 5341 5343 5345 5347 5348 5350 5353 5354 5357 5359 5362 5364 5367 5369 5371 5374
5481 5477 5472 5467 5462 5457 5452 5447 5441 5435 5430 5424 5419 5414 5408 5403 5398 5393 5388 5383 5379 5374 5370 5366 5363 5359 5356 5353 5350 5348 5345 5342 5340 5338 5336 5334 5333 5332 5331 5329 5328 5328 5328 5328 5328 5328 5328 5329 5330 5331 5333 5334 5335 5337 5338 5340 5342 5344 5346 5348 5350 5352 5355 5357 5359 5362 5364 5367 5369
5473 5468 5464 5459 5454 5449 5443 5438 5432 5427 5421 5416 5411 5405 5400 5395 5390 5385 5380 5376 5371 5367 5363 5360 5357 5353 5350 5347 5345 5342 5339 5337 5334 5332 5330 5328 5327 5326 5325 5324 5323 5323 5322 5323 5323 5323 5324 5325 5326 5327 5328 5330 5331 5333 5334 5336 5338 5340 5342 5343 5346 5348 5350 5353 5355 5358 5360 5363 5365
5465 5460 5455 5450 5445 5440 5435 5429 5424 5418 5413 5408 5402 5397 5392 5387 5382 5378 5373 5368 5365 5361 5357 5354 5351 5348 5345 5342 5339 5337 5334 5332 5329 5327 5325 5323 5322 5321 5320 5319 5318 5318 5318 5318 5318 5318 5319 5321 5322 5323 5324 5326 5327 5328 5330 5332 5334 5336 5338 5340 5342 5344 5346 5349 5351 5354 5356 5358 5361
5457 5452 5447 5442 5437 5432 5427 5421 5416 5410 5405 5399 5394 5389 5384 5380 5375 5371 5366 5362 5358 5355 5352 5348 5345 5343 5340 5337 5334 5332 5329 5327 5325 5322 5320 5319 5318 5316 5315 5314 5314 5313 5313 5314 5314 5314 5315 5317 5318 5320 5321 5323 5323 5325 5326 5328 5330 5332 5334 5336 5338 5341 5343 5345 5348 5350 5353 5355 5357
5449 5444 5439 5434 5429 5424 5419 5413 5408 5402 5397 5392 5387 5382 5378 5373 5368 5364 5360 5357 5353 5350 5347 5344 5341 5338 5335 5332 5329 5327 5324 5322 5320 5318 5316 5314 5313 5312 5311 5310 5309 5309 5309 5310 5310 5311 5312 5313 5315 5317 5318 5319 5321 5322 5323 5325 5327 5329 5331 5333 5335 5338 5340 5342 5344 5347 5349 5352 5354
5442 5436 5431 5426 5421 5416 5411 5405 5400 5395 5389 5384 5380 5375 5371 5367 5363 5359 5355 5351 5348 5345 5342 5339 5336 5333 5331 5328 5325 5323 5320 5318 5316 5314 5312 5310 5309 5308 5307 5306 5306 5306 5306 5306 5307 5308 5309 5310 5312 5314 5315 5317 5318 5319 5320 5322 5324 5326 5328 5331 5333 5335 5337 5339 5341 5343 5346 5348 5351
5434 5429 5423 5418 5413 5408 5403 5398 5393 5388 5383 5378 5373 5369 5365 5361 5357 5354 5350 5347 5343 5340 5337 5334 5332 5329 5326 5324 5321 5319 5316 5314 5312 5310 5308 5306 5305 5304 5303 5303 5302 5302 5303 5303 5303 5305 5306 5308 5309 5311 5313 5314 5315 5316 5318 5319 5322 5323 5326 5328 5330 5332 5334 5336 5338 5340 5343 5345 5347
5427 5421 5416 5411 5406 5401 5395 5390 5385 5381 5376 5372 5367 5363 5359 5356 5352 5348 5345 5342 5339 5336 5333 5330 5328 5325 5322 5320 5317 5315 5313 5310 5308 5306 5304 5303 5301 5300 5300 5299 5299 5299 5300 5300 5301 5302 5304 5306 5308 5309 5311 5312 5313 5314 5315 5317 5319 5321 5323 5325 5327 5329 5331 5333 5336 5338 5340 5342 5344
5420 5414 5408 5403 5398 5393 5388 5383 5379 5374 5370 5366 5362 5358 5354 5351 5347 5344 5341 5338 5334 5332 5329 5327 5324 5321 5318 5316 5313 5311 5309 5307 5305 5303 5301 5299 5298 5297 5297 5297 5297 5297 5297 5298 5299 5301 5302 5304 5306 5307 5308 5310 5311 5312 5313 5315 5317 5319 5321 5323 5325 5327 5329 5331 5333 5335 5338 5340 5342
5413 5407 5401 5396 5391 5386 5382 5377 5373 5368 5364 5361 5357 5353 5350 5346 5343 5340 5336 5333 5330 5328 5325 5323 5321 5318 5315 5312 5310 5307 5305 5303 5301 5299 5298 5296 5295 5294 5294 5294 5294 5295 5295 5296 5298 5299 5301 5303 5304 5305 5307 5308 5309 5310 5312 5314 5316 5317 5319 5321 5323 5325 5327 5329 5331 5333 5335 5338 5340
5405 5399 5394 5389 5384 5379 5375 5371 5367 5363 5359 5355 5352 5348 5345 5342 5338 5335 5332 5329 5327 5324 5322 5320 5317 5315 5312 5309 5307 5304 5302 5300 5298 5296 5295 5294 5293 5292 5292 5292 5293 5293 5294 5295 5297 5298 5300 5301 5303 5304 5305 5306 5307 5309 5311 5312 5314 5316 5318 5319 5322 5323 5325 5327 5329 5331 5333 5336 5338
5398 5393 5387 5382 5377 5373 5369 5365 5361 5357 5354 5350 5347 5344 5341 5338 5334 5331 5328 5326 5323 5320 5318 5317 5314 5312 5309 5306 5304 5301 5299 5297 5295 5294 5293 5292 5291 5290 5290 5291 5291 5292 5293 5294 5296 5297 5299 5300 5301 5303 5303 5305 5306 5308 5309 5311 5313 5314 5316 5318 5320 5322 5324 5325 5328 5329 5332 5334 5336
5392 5386 5380 5375 5371 5367 5363 5359 5356 5352 5349 5346 5343 5339 5337 5333 5330 5328 5325 5322 5319 5317 5315 5313 5311 5308 5306 5303 5301 5299 5297 5295 5293 5292 5291 5290 5289 5289 5289 5290 5291 5292 5293 5294 5295 5297 5298 5299 5300 5302 5303 5304 5305 5307 5308 5310 5311 5313 5315 5317 5318 5320 5322 5324 5326 5328 5330 5332 5334
5386 5380 5374 5369 5365 5361 5358 5354 5351 5348 5344 5341 5338 5335 5333 5330 5327 5324 5322 5319 5317 5314 5312 5309 5308 5305 5303 5300 5298 5296 5295 5293 5291 5290 5289 5288 5288 5288 5289 5290 5290 5291 5293 5294 5295 5296 5297 5298 5299 5301 5302 5303 5304 5306 5307 5309 5311 5313 5314 5316 5317 5319 5321 5323 5325 5327 5328 5330 5333
5379 5374 5369 5364 5360 5356 5353 5349 5347 5343 5340 5337 5334 5331 5328 5326 5323 5321 5318 5316 5313 5311 5308 5306 5304 5302 5300 5298 5296 5294 5293 5292 5290 5288 5288 5288 5288 5288 5289 5290 5291 5292 5293 5293 5295 5296 5297 5298 5299 5300 5301 5303 5304 5305 5307 5309 5310 5312 5313 5315 5316 5318 5319 5322 5324 5326 5328 5329 5331
5373 5368 5363 5359 5355 5352 5348 5345 5342 5339 5337 5334 5331 5328 5325 5323 5320 5318 5315 5313 5311 5308 5306 5303 5301 5299 5298 5296 5294 5292 5291 5290 5289 5288 5288 5288 5288 5288 5289 5290 5291 5292 5293 5293 5294 5295 5296 5298 5298 5300 5301 5303 5304 5305 5307 5308 5310 5311 5313 5314 5315 5317 5318 5321 5323 5325 5327 5328 5330